CHINASAT 16 (SJ-13)

Last updated on Nov. 15, 2019, 4:20 a.m. UTC

1 42662U 17018A   19318.58917818 -.00000339  00000-0  99999+0 0  9996
2 42662   0.0642  90.4205 0008033 147.9027 137.7545  1.00271859  9619
UTC
Height (km)
Latitude
Longitude
Inclination
Orbital Period
UTC large
Height (km)
Speed (km/s)
/
Latitude / Longitude
Inclination (degrees)
Orbital Period (minutes)
Azimuth
Elevation
Range (km)
Doppler Factor
iOS Compass Heading
iOS Angle

Next 30 passes for location: Hong Kong

Rise time Rise Azimuth (degrees) Set time Set Azimuth (degrees) Duration Max altitude (degrees)

No matching passes for this satellites